ACA832 CYUL-EBBR

Flight info

Callsign ACA832
Flight time N/A
Altitude 35000
Route ANTEG DCT OBRON DCT MOBUB DCT EBMOS DCT IMORI DCT KITOP DCT BAREE N747B LOMSI/M083F380 DCT 55N050W 56N040W 56N030W 55N020W DCT DOGAL DCT BEXET/N0480F390 DCT ENJEX DCT ADHAV DCT AXNEF DCT ZIPWE DCT OZZIL DCT SAWPE Q63 CPT UL9 BIG/N0486F290 Q70 VABIK/N0441F230 Q70 KOK
Aircraft B77L/H-SDE1E2E3FGHIJ2J3J4J5M1RWXY/LB1D1

Departure

Time N/A
Airport Montreal / Pierre Elliott Trudeau International Airport (CYUL)

Arrival

Time 2026-05-01 13:22
Airport Brussels Airport (EBBR)
Time Latitude Longitude Altitude Speed Heading
2026-05-01 07:23 47.19365 -70.85516 34787 ft 511 kts 51°
2026-05-01 07:24 47.26608 -70.74015 34783 ft 511 kts 52°
2026-05-01 07:24 47.31424 -70.66341 34792 ft 510 kts 52°
2026-05-01 07:25 47.36237 -70.58650 34792 ft 510 kts 52°
2026-05-01 07:25 47.41041 -70.50951 34732 ft 510 kts 52°
2026-05-01 07:26 47.45830 -70.43254 34780 ft 508 kts 52°
2026-05-01 07:26 47.50608 -70.35550 34778 ft 508 kts 52°
2026-05-01 07:27 47.55382 -70.27832 34783 ft 508 kts 52°
2026-05-01 07:27 47.60151 -70.20099 34793 ft 508 kts 52°
2026-05-01 07:28 47.64915 -70.12352 34781 ft 509 kts 52°
2026-05-01 07:28 47.69679 -70.04581 34810 ft 509 kts 52°
2026-05-01 07:29 47.74447 -69.96783 34809 ft 510 kts 52°
2026-05-01 07:29 47.79207 -69.88973 34802 ft 510 kts 52°
2026-05-01 07:30 47.83960 -69.81152 34800 ft 510 kts 53°
2026-05-01 07:30 47.88709 -69.73316 34805 ft 509 kts 53°
2026-05-01 07:31 47.93416 -69.65525 34799 ft 508 kts 53°
2026-05-01 07:32 48.05234 -69.45860 34811 ft 510 kts 53°
2026-05-01 07:33 48.12324 -69.33995 34814 ft 510 kts 53°
2026-05-01 07:33 48.18961 -69.21625 34831 ft 506 kts 58°
2026-05-01 07:34 48.25208 -69.08835 34836 ft 507 kts 59°
2026-05-01 07:35 48.29389 -69.00298 34830 ft 507 kts 58°
2026-05-01 07:35 48.33578 -68.91762 34807 ft 508 kts 58°
2026-05-01 07:36 48.37764 -68.83216 34845 ft 508 kts 58°
2026-05-01 07:36 48.41946 -68.74649 34845 ft 508 kts 58°
2026-05-01 07:37 48.48240 -68.61695 35512 ft 510 kts 58°
2026-05-01 07:37 48.50331 -68.57382 35904 ft 508 kts 58°
2026-05-01 07:37 48.52411 -68.53083 36274 ft 507 kts 58°
2026-05-01 07:38 48.54487 -68.48786 36606 ft 506 kts 58°
2026-05-01 07:38 48.56558 -68.44489 36820 ft 507 kts 58°
2026-05-01 07:39 48.62765 -68.31572 36832 ft 507 kts 58°
2026-05-01 07:39 48.68930 -68.18686 36849 ft 502 kts 58°
2026-05-01 07:40 48.73010 -68.10121 36848 ft 501 kts 58°
2026-05-01 07:40 48.77077 -68.01554 36855 ft 501 kts 58°
2026-05-01 07:41 48.80479 -67.94368 36871 ft 501 kts 58°
2026-05-01 07:42 48.86544 -67.81511 36885 ft 503 kts 58°
2026-05-01 07:42 48.90610 -67.72856 36887 ft 504 kts 58°
2026-05-01 07:43 48.94681 -67.64165 36886 ft 505 kts 58°
2026-05-01 07:43 49.00784 -67.51082 36886 ft 506 kts 58°
2026-05-01 07:44 49.08910 -67.33561 36870 ft 506 kts 58°
2026-05-01 07:45 49.12964 -67.24778 36879 ft 506 kts 59°
2026-05-01 07:45 49.17008 -67.15986 36894 ft 506 kts 59°
2026-05-01 07:46 49.21047 -67.07177 36896 ft 506 kts 59°
2026-05-01 07:47 49.27098 -66.93925 36891 ft 507 kts 59°
2026-05-01 07:47 49.31128 -66.85063 36914 ft 507 kts 59°
2026-05-01 07:48 49.37169 -66.71723 36915 ft 508 kts 59°
2026-05-01 07:48 49.41195 -66.62797 36914 ft 509 kts 59°
2026-05-01 07:49 49.47194 -66.49437 36936 ft 509 kts 59°
2026-05-01 07:50 49.51204 -66.40472 36931 ft 509 kts 59°
2026-05-01 07:50 49.57204 -66.26999 36937 ft 508 kts 59°
2026-05-01 07:51 49.61184 -66.18023 36971 ft 507 kts 59°
2026-05-01 07:52 49.67125 -66.04569 36979 ft 505 kts 59°
2026-05-01 07:52 49.71065 -65.95611 36979 ft 503 kts 59°
2026-05-01 07:53 49.76941 -65.82190 36995 ft 501 kts 59°
2026-05-01 07:53 49.80834 -65.73263 37003 ft 500 kts 59°
2026-05-01 07:55 49.90498 -65.50966 37011 ft 498 kts 59°
2026-05-01 07:56 50.00124 -65.28570 37052 ft 500 kts 60°
2026-05-01 07:57 50.05896 -65.15047 37051 ft 501 kts 60°
2026-05-01 07:58 50.13587 -64.96925 37072 ft 502 kts 60°
2026-05-01 07:59 50.21248 -64.78748 37089 ft 501 kts 60°
2026-05-01 08:00 50.32613 -64.51547 37113 ft 498 kts 60°
2026-05-01 08:01 50.40149 -64.33354 37117 ft 497 kts 60°
2026-05-01 08:02 50.45773 -64.19695 37127 ft 497 kts 60°
2026-05-01 08:03 50.51379 -64.06005 37129 ft 497 kts 60°
2026-05-01 08:03 50.56967 -63.92289 37152 ft 497 kts 60°
2026-05-01 08:04 50.64399 -63.73934 37154 ft 497 kts 60°
2026-05-01 08:05 50.69957 -63.60125 37144 ft 497 kts 60°
2026-05-01 08:06 50.75498 -63.46282 37159 ft 498 kts 60°
2026-05-01 08:07 50.82874 -63.27739 37158 ft 499 kts 60°
2026-05-01 08:08 50.88370 -63.13836 37164 ft 499 kts 60°
2026-05-01 08:09 50.95715 -62.95141 37165 ft 500 kts 60°
2026-05-01 08:09 50.99377 -62.85769 37167 ft 500 kts 60°
2026-05-01 08:10 51.06679 -62.66978 37162 ft 499 kts 60°
2026-05-01 08:11 51.13935 -62.48171 37168 ft 498 kts 60°
2026-05-01 08:12 51.19345 -62.34056 37169 ft 497 kts 60°
2026-05-01 08:13 51.24731 -62.19928 37177 ft 497 kts 60°
2026-05-01 08:13 51.30069 -62.05848 37182 ft 496 kts 60°
2026-05-01 08:14 51.33636 -61.96395 37178 ft 496 kts 60°
2026-05-01 08:14 51.37190 -61.86945 37184 ft 496 kts 60°
2026-05-01 08:15 51.42507 -61.72736 37182 ft 496 kts 61°
2026-05-01 08:16 51.46045 -61.63241 37187 ft 496 kts 61°
2026-05-01 08:16 51.49573 -61.53735 37184 ft 496 kts 61°
2026-05-01 08:17 51.53098 -61.44203 37194 ft 496 kts 61°
2026-05-01 08:17 51.56613 -61.34662 37187 ft 496 kts 61°
2026-05-01 08:18 51.60118 -61.25110 37196 ft 496 kts 61°
2026-05-01 08:19 51.67110 -61.05954 37194 ft 496 kts 62°
2026-05-01 08:19 51.70593 -60.96355 37202 ft 496 kts 62°
2026-05-01 08:20 51.74071 -60.86736 37206 ft 496 kts 62°
2026-05-01 08:20 51.77543 -60.77094 37216 ft 497 kts 62°
2026-05-01 08:21 51.80981 -60.67512 37214 ft 496 kts 62°
2026-05-01 08:21 51.84433 -60.57853 37217 ft 496 kts 62°
2026-05-01 08:22 51.87874 -60.48189 37218 ft 496 kts 62°
2026-05-01 08:22 51.91305 -60.38516 37219 ft 495 kts 63°
2026-05-01 08:23 51.94724 -60.28839 37223 ft 495 kts 63°
2026-05-01 08:23 51.98045 -60.19406 37228 ft 494 kts 63°
2026-05-01 08:24 52.01445 -60.09710 37235 ft 494 kts 63°
2026-05-01 08:24 52.04834 -60.00006 37233 ft 494 kts 63°
2026-05-01 08:25 52.08215 -59.90288 37241 ft 494 kts 63°
2026-05-01 08:25 52.11591 -59.80550 37239 ft 494 kts 63°
2026-05-01 08:26 52.14956 -59.70802 37246 ft 494 kts 63°
2026-05-01 08:26 52.18313 -59.61040 37251 ft 494 kts 63°
2026-05-01 08:27 52.21664 -59.51257 37252 ft 494 kts 64°
2026-05-01 08:27 52.25001 -59.41478 37236 ft 493 kts 64°
2026-05-01 08:28 52.28328 -59.31691 37252 ft 493 kts 64°
2026-05-01 08:28 52.31623 -59.21959 37275 ft 493 kts 64°
2026-05-01 08:29 52.34936 -59.12133 37254 ft 493 kts 64°
2026-05-01 08:29 52.38239 -59.02299 37267 ft 493 kts 64°
2026-05-01 08:30 52.41535 -58.92449 37269 ft 493 kts 65°
2026-05-01 08:30 52.44290 -58.84185 37258 ft 493 kts 65°
2026-05-01 08:31 52.47549 -58.74369 37279 ft 493 kts 65°
2026-05-01 08:31 52.50823 -58.64471 37272 ft 493 kts 65°
2026-05-01 08:32 52.54088 -58.54563 37270 ft 493 kts 65°
2026-05-01 08:32 52.57342 -58.44647 37259 ft 493 kts 65°
2026-05-01 08:33 52.60586 -58.34723 37268 ft 492 kts 65°
2026-05-01 08:33 52.63817 -58.24794 37272 ft 492 kts 66°
2026-05-01 08:34 52.67038 -58.14859 37274 ft 492 kts 66°
2026-05-01 08:34 52.70251 -58.04908 37257 ft 492 kts 66°
2026-05-01 08:35 52.73454 -57.94947 37273 ft 491 kts 66°
2026-05-01 08:35 52.76648 -57.84974 37276 ft 491 kts 66°
2026-05-01 08:36 52.79835 -57.74982 37270 ft 491 kts 66°
2026-05-01 08:36 52.83013 -57.64974 37276 ft 492 kts 66°
2026-05-01 08:37 52.86182 -57.54959 37273 ft 491 kts 66°
2026-05-01 08:37 52.89321 -57.44995 37273 ft 492 kts 66°
2026-05-01 08:38 52.92494 -57.34878 37275 ft 492 kts 66°
2026-05-01 08:38 52.95618 -57.24880 37277 ft 492 kts 66°
2026-05-01 08:39 52.98757 -57.14793 37261 ft 492 kts 66°
2026-05-01 08:39 53.01884 -57.04697 37265 ft 492 kts 66°
2026-05-01 08:40 53.06561 -56.89523 37275 ft 492 kts 66°
2026-05-01 08:40 53.09668 -56.79395 37273 ft 492 kts 66°
2026-05-01 08:41 53.12838 -56.69305 37271 ft 492 kts 65°
2026-05-01 08:41 53.16083 -56.59259 37266 ft 492 kts 65°
2026-05-01 08:42 53.19317 -56.49209 37263 ft 492 kts 65°
2026-05-01 08:42 53.22531 -56.39126 37263 ft 491 kts 65°
2026-05-01 08:43 53.25721 -56.29045 37266 ft 491 kts 65°
2026-05-01 08:43 53.28901 -56.18950 37253 ft 491 kts 65°
2026-05-01 08:44 53.32068 -56.08859 37263 ft 490 kts 65°
2026-05-01 08:44 53.35207 -55.98817 37264 ft 490 kts 65°
2026-05-01 08:45 53.38354 -55.88706 37269 ft 489 kts 65°
2026-05-01 08:45 53.41490 -55.78588 37265 ft 489 kts 65°
2026-05-01 08:46 53.44616 -55.68460 37265 ft 489 kts 65°
2026-05-01 08:46 53.47733 -55.58319 37269 ft 489 kts 65°
2026-05-01 08:47 53.50831 -55.48197 37277 ft 489 kts 65°
2026-05-01 08:47 53.53931 -55.38027 37277 ft 489 kts 65°
2026-05-01 08:48 53.57021 -55.27843 37276 ft 489 kts 65°
2026-05-01 08:48 53.60102 -55.17651 37285 ft 488 kts 65°
2026-05-01 08:49 53.63169 -55.07457 37292 ft 488 kts 65°
2026-05-01 08:49 53.66209 -54.97311 37287 ft 488 kts 65°
2026-05-01 08:50 53.69278 -54.87023 37286 ft 488 kts 65°
2026-05-01 08:50 53.72297 -54.76861 37288 ft 487 kts 65°
2026-05-01 08:51 53.75324 -54.66625 37309 ft 487 kts 65°
2026-05-01 08:51 53.78343 -54.56375 37296 ft 487 kts 65°
2026-05-01 08:52 53.81353 -54.46109 37301 ft 487 kts 66°
2026-05-01 08:52 53.84356 -54.35824 37317 ft 487 kts 66°
2026-05-01 08:53 53.87350 -54.25524 37293 ft 487 kts 66°
2026-05-01 08:53 53.90335 -54.15209 37314 ft 487 kts 66°
2026-05-01 08:54 53.93311 -54.04882 37313 ft 487 kts 66°
2026-05-01 08:54 53.96280 -53.94534 37315 ft 487 kts 66°
2026-05-01 08:55 53.99240 -53.84168 37312 ft 487 kts 66°
2026-05-01 08:55 54.02190 -53.73793 37320 ft 488 kts 66°
2026-05-01 08:56 54.05133 -53.63398 37327 ft 488 kts 66°
2026-05-01 08:56 54.08067 -53.52984 37326 ft 488 kts 66°
2026-05-01 08:57 54.10993 -53.42554 37329 ft 488 kts 66°
2026-05-01 08:57 54.13912 -53.32105 37322 ft 488 kts 66°
2026-05-01 08:58 54.16824 -53.21630 37340 ft 488 kts 66°
2026-05-01 08:58 54.19708 -53.11211 37339 ft 489 kts 66°
2026-05-01 08:59 54.22605 -53.00697 37335 ft 489 kts 66°
2026-05-01 08:59 54.25490 -52.90178 37344 ft 489 kts 66°
2026-05-01 09:00 54.28364 -52.79651 37343 ft 489 kts 67°
2026-05-01 09:00 54.31232 -52.69098 37354 ft 489 kts 67°
2026-05-01 09:01 54.34089 -52.58535 37356 ft 489 kts 67°
2026-05-01 09:01 54.36940 -52.47946 37354 ft 489 kts 67°
2026-05-01 09:02 54.39784 -52.37336 37355 ft 489 kts 67°
2026-05-01 09:02 54.42618 -52.26711 37357 ft 490 kts 67°
2026-05-01 09:03 54.45445 -52.16066 37365 ft 490 kts 67°
2026-05-01 09:03 54.48264 -52.05400 37359 ft 490 kts 67°
2026-05-01 09:04 54.51076 -51.94708 37364 ft 491 kts 67°
2026-05-01 09:04 54.53880 -51.83998 37364 ft 491 kts 67°
2026-05-01 09:05 54.56675 -51.73271 37369 ft 491 kts 68°
2026-05-01 09:05 54.59460 -51.62529 37376 ft 491 kts 67°
2026-05-01 09:06 54.62215 -51.51852 37373 ft 491 kts 68°
2026-05-01 09:06 54.64981 -51.41086 37377 ft 491 kts 68°
2026-05-01 09:07 54.67738 -51.30297 37386 ft 491 kts 68°
2026-05-01 09:07 54.70485 -51.19500 37387 ft 491 kts 68°
2026-05-01 09:08 54.73223 -51.08683 37388 ft 491 kts 68°
2026-05-01 09:08 54.75951 -50.97853 37391 ft 491 kts 68°
2026-05-01 09:09 54.78671 -50.87004 37389 ft 491 kts 68°
2026-05-01 09:09 54.81381 -50.76135 37393 ft 491 kts 68°
2026-05-01 09:10 54.84082 -50.65254 37394 ft 491 kts 68°
2026-05-01 09:10 54.86775 -50.54352 37392 ft 491 kts 68°
2026-05-01 09:11 54.89458 -50.43436 37392 ft 492 kts 68°
2026-05-01 09:11 54.92133 -50.32497 37402 ft 492 kts 68°
2026-05-01 09:12 54.94799 -50.21537 37399 ft 492 kts 68°
2026-05-01 09:12 54.97457 -50.10564 37399 ft 492 kts 68°
2026-05-01 09:13 55.00039 -49.99533 37401 ft 491 kts 72°
2026-05-01 09:13 55.01817 -49.88066 37415 ft 490 kts 78°
2026-05-01 09:14 55.03401 -49.76530 37407 ft 490 kts 78°
2026-05-01 09:14 55.04996 -49.64971 37405 ft 490 kts 78°
2026-05-01 09:15 55.06610 -49.53408 37408 ft 491 kts 78°
2026-05-01 09:15 55.08225 -49.41839 37413 ft 491 kts 78°
2026-05-01 09:16 55.09831 -49.30243 37415 ft 492 kts 78°
2026-05-01 09:17 55.12222 -49.12797 37419 ft 493 kts 78°
2026-05-01 09:17 55.14581 -48.95371 37416 ft 494 kts 78°
2026-05-01 09:18 55.16677 -48.79718 37419 ft 495 kts 78°
2026-05-01 09:19 55.19257 -48.60222 37424 ft 495 kts 78°
2026-05-01 09:20 55.21310 -48.44514 37415 ft 495 kts 79°
2026-05-01 09:21 55.24342 -48.20999 37432 ft 495 kts 79°
2026-05-01 09:21 55.26578 -48.03405 37429 ft 495 kts 79°
2026-05-01 09:22 55.29535 -47.79794 37434 ft 496 kts 79°
2026-05-01 09:23 55.31726 -47.62040 37434 ft 497 kts 79°
2026-05-01 09:24 55.33894 -47.44244 37435 ft 497 kts 79°
2026-05-01 09:25 55.36741 -47.20503 37429 ft 496 kts 79°
2026-05-01 09:26 55.38846 -47.02679 37445 ft 497 kts 79°
2026-05-01 09:26 55.40931 -46.84790 37444 ft 498 kts 80°
2026-05-01 09:27 55.42981 -46.66954 37451 ft 498 kts 80°
2026-05-01 09:28 55.44344 -46.54964 37438 ft 499 kts 80°
2026-05-01 09:28 55.45694 -46.42969 37430 ft 500 kts 80°
2026-05-01 09:29 55.47702 -46.24927 37433 ft 501 kts 80°
2026-05-01 09:30 55.49688 -46.06818 37445 ft 502 kts 80°
2026-05-01 09:30 55.51649 -45.88672 37444 ft 502 kts 80°
2026-05-01 09:31 55.52944 -45.76544 37436 ft 503 kts 81°
2026-05-01 09:32 55.54866 -45.58317 37423 ft 504 kts 81°
2026-05-01 09:32 55.56762 -45.40064 37441 ft 503 kts 81°
2026-05-01 09:33 55.58010 -45.27894 37427 ft 503 kts 81°
2026-05-01 09:34 55.59859 -45.09627 37447 ft 504 kts 81°
2026-05-01 09:34 55.61684 -44.91312 37446 ft 505 kts 81°
2026-05-01 09:35 55.63485 -44.72938 37434 ft 505 kts 81°
2026-05-01 09:36 55.64672 -44.60673 37450 ft 506 kts 81°
2026-05-01 09:36 55.65847 -44.48392 37436 ft 506 kts 81°
2026-05-01 09:37 55.67011 -44.36090 37447 ft 506 kts 81°
2026-05-01 09:37 55.68735 -44.17616 37438 ft 507 kts 82°
2026-05-01 09:38 55.70432 -43.99108 37442 ft 507 kts 82°
2026-05-01 09:39 55.72100 -43.80600 37433 ft 507 kts 82°
2026-05-01 09:39 55.73190 -43.68330 37434 ft 507 kts 82°
2026-05-01 09:40 55.74811 -43.49813 37437 ft 505 kts 82°
2026-05-01 09:41 55.75872 -43.37508 37434 ft 503 kts 82°
2026-05-01 09:41 55.77435 -43.19087 37435 ft 503 kts 82°
2026-05-01 09:42 55.78464 -43.06781 37441 ft 504 kts 82°
2026-05-01 09:43 55.80491 -42.82073 37437 ft 506 kts 83°
2026-05-01 09:43 55.81488 -42.69682 37439 ft 507 kts 83°
2026-05-01 09:44 55.82964 -42.51023 37438 ft 509 kts 83°
2026-05-01 09:45 55.83935 -42.38559 37442 ft 509 kts 83°
2026-05-01 09:45 55.85368 -42.19825 37437 ft 510 kts 83°
2026-05-01 09:46 55.86309 -42.07320 37433 ft 510 kts 83°
2026-05-01 09:46 55.87237 -41.94804 37446 ft 510 kts 83°
2026-05-01 09:47 55.88153 -41.82274 37436 ft 511 kts 83°
2026-05-01 09:47 55.89058 -41.69712 37437 ft 512 kts 83°
2026-05-01 09:48 55.89952 -41.57128 37433 ft 512 kts 83°
2026-05-01 09:48 55.90833 -41.44540 37430 ft 512 kts 83°
2026-05-01 09:49 55.91694 -41.32045 37431 ft 511 kts 84°
2026-05-01 09:49 55.92546 -41.19478 37434 ft 511 kts 83°
2026-05-01 09:50 55.93388 -41.06884 37438 ft 512 kts 84°
2026-05-01 09:50 55.94223 -40.94192 37437 ft 512 kts 84°
2026-05-01 09:51 55.95034 -40.81653 37432 ft 512 kts 84°
2026-05-01 09:51 55.95839 -40.69012 37432 ft 513 kts 84°
2026-05-01 09:52 55.96631 -40.56359 37435 ft 514 kts 84°
2026-05-01 09:52 55.97413 -40.43667 37418 ft 515 kts 84°
2026-05-01 09:53 55.98182 -40.30957 37437 ft 515 kts 84°
2026-05-01 09:53 55.98940 -40.18220 37434 ft 516 kts 84°
2026-05-01 09:54 55.99685 -40.05488 37421 ft 516 kts 84°
2026-05-01 09:54 56.00364 -39.92729 37436 ft 516 kts 85°
2026-05-01 09:55 56.00856 -39.79921 37434 ft 517 kts 86°
2026-05-01 09:55 56.01305 -39.67103 37436 ft 518 kts 86°
2026-05-01 09:56 56.01765 -39.54251 37432 ft 518 kts 86°
2026-05-01 09:56 56.02230 -39.41405 37426 ft 517 kts 86°
2026-05-01 09:57 56.02685 -39.28580 37450 ft 517 kts 86°
2026-05-01 09:57 56.03126 -39.15746 37423 ft 517 kts 86°
2026-05-01 09:58 56.03550 -39.02971 37435 ft 518 kts 86°
2026-05-01 09:58 56.03963 -38.90098 37428 ft 519 kts 86°
2026-05-01 09:59 56.04363 -38.77212 37422 ft 519 kts 87°
2026-05-01 09:59 56.04751 -38.64307 37429 ft 520 kts 87°
2026-05-01 10:00 56.05125 -38.51387 37406 ft 521 kts 87°
2026-05-01 10:00 56.05486 -38.38456 37419 ft 521 kts 87°
2026-05-01 10:01 56.05834 -38.25519 37422 ft 521 kts 87°
2026-05-01 10:01 56.06168 -38.12574 37412 ft 521 kts 87°
2026-05-01 10:02 56.06488 -37.99633 37425 ft 520 kts 87°
2026-05-01 10:02 56.06795 -37.86698 37432 ft 520 kts 87°
2026-05-01 10:03 56.07089 -37.73746 37419 ft 521 kts 87°
2026-05-01 10:03 56.07369 -37.60766 37416 ft 522 kts 87°
2026-05-01 10:04 56.07637 -37.47773 37407 ft 522 kts 87°
2026-05-01 10:04 56.07890 -37.34781 37411 ft 522 kts 87°
2026-05-01 10:05 56.08128 -37.21881 37424 ft 522 kts 88°
2026-05-01 10:05 56.08354 -37.08905 37418 ft 521 kts 88°
2026-05-01 10:06 56.08566 -36.95935 37412 ft 521 kts 88°
2026-05-01 10:06 56.08765 -36.82981 37413 ft 521 kts 88°
2026-05-01 10:07 56.08950 -36.70022 37420 ft 520 kts 88°
2026-05-01 10:07 56.09093 -36.59256 37422 ft 520 kts 88°
2026-05-01 10:08 56.09328 -36.39816 37408 ft 521 kts 88°
2026-05-01 10:09 56.09468 -36.26831 37417 ft 522 kts 88°
2026-05-01 10:09 56.09594 -36.13833 37413 ft 523 kts 88°
2026-05-01 10:10 56.09707 -36.00811 37414 ft 523 kts 88°
2026-05-01 10:10 56.09851 -35.81254 37430 ft 524 kts 88°
2026-05-01 10:11 56.09930 -35.68200 37409 ft 525 kts 89°
2026-05-01 10:11 56.09994 -35.55206 37387 ft 525 kts 89°
2026-05-01 10:12 56.10046 -35.42145 37406 ft 524 kts 89°
2026-05-01 10:13 56.10097 -35.22576 37402 ft 523 kts 89°
2026-05-01 10:13 56.10114 -35.09543 37415 ft 523 kts 89°
2026-05-01 10:14 56.10113 -34.89996 37403 ft 523 kts 89°
2026-05-01 10:14 56.10096 -34.76972 37400 ft 523 kts 89°
2026-05-01 10:15 56.10065 -34.63946 37404 ft 523 kts 89°
2026-05-01 10:15 56.10020 -34.50926 37389 ft 522 kts 89°
2026-05-01 10:16 56.09961 -34.37922 37411 ft 522 kts 89°
2026-05-01 10:17 56.09848 -34.18422 37397 ft 522 kts 89°
2026-05-01 10:17 56.09705 -33.98935 37391 ft 521 kts 89°
2026-05-01 10:18 56.09530 -33.79456 37396 ft 521 kts 89°
2026-05-01 10:19 56.09398 -33.66557 37403 ft 522 kts 89°
2026-05-01 10:19 56.09251 -33.53558 37381 ft 522 kts 89°
2026-05-01 10:20 56.09005 -33.34104 37391 ft 521 kts 90°
2026-05-01 10:20 56.08824 -33.21150 37391 ft 520 kts 90°
2026-05-01 10:21 56.08528 -33.01739 37407 ft 520 kts 90°
2026-05-01 10:22 56.08202 -32.82324 37384 ft 520 kts 90°
2026-05-01 10:23 56.07845 -32.62923 37386 ft 520 kts 90°
2026-05-01 10:23 56.07458 -32.43543 37382 ft 519 kts 90°
2026-05-01 10:24 56.06896 -32.17748 37385 ft 518 kts 90°
2026-05-01 10:25 56.06283 -31.92078 37382 ft 518 kts 90°
2026-05-01 10:26 56.05956 -31.79210 37380 ft 518 kts 90°
2026-05-01 10:27 56.05261 -31.53467 37381 ft 518 kts 90°
2026-05-01 10:28 56.04705 -31.34183 37381 ft 517 kts 91°
2026-05-01 10:28 56.04119 -31.14920 37379 ft 517 kts 91°
2026-05-01 10:29 56.03504 -30.95679 37393 ft 517 kts 91°
2026-05-01 10:30 56.02638 -30.70036 37380 ft 517 kts 91°
2026-05-01 10:31 56.01718 -30.44410 37375 ft 516 kts 91°
2026-05-01 10:32 56.00996 -30.25241 37372 ft 515 kts 91°
2026-05-01 10:33 55.99989 -29.99716 37372 ft 515 kts 92°
2026-05-01 10:34 55.98929 -29.80610 37373 ft 515 kts 94°
2026-05-01 10:34 55.98127 -29.67885 37372 ft 516 kts 94°
2026-05-01 10:35 55.96943 -29.48809 37372 ft 515 kts 94°
2026-05-01 10:35 55.96155 -29.36108 37367 ft 515 kts 94°
2026-05-01 10:36 55.94949 -29.17077 37369 ft 514 kts 94°
2026-05-01 10:37 55.94135 -29.04501 37369 ft 514 kts 94°
2026-05-01 10:37 55.92879 -28.85525 37382 ft 514 kts 94°
2026-05-01 10:38 55.92026 -28.72878 37365 ft 514 kts 94°
2026-05-01 10:38 55.91161 -28.60246 37362 ft 513 kts 94°
2026-05-01 10:39 55.90284 -28.47644 37362 ft 512 kts 95°
2026-05-01 10:39 55.89396 -28.35065 37358 ft 511 kts 95°
2026-05-01 10:40 55.88496 -28.22508 37358 ft 511 kts 95°
2026-05-01 10:40 55.87583 -28.09949 37363 ft 511 kts 95°
2026-05-01 10:41 55.86658 -27.97404 37354 ft 511 kts 95°
2026-05-01 10:42 55.85253 -27.78693 37353 ft 511 kts 95°
2026-05-01 10:42 55.84297 -27.66188 37357 ft 510 kts 95°
2026-05-01 10:43 55.83331 -27.53704 37347 ft 509 kts 95°
2026-05-01 10:43 55.82353 -27.41242 37356 ft 508 kts 95°
2026-05-01 10:44 55.81363 -27.28793 37343 ft 508 kts 96°
2026-05-01 10:44 55.80361 -27.16368 37345 ft 508 kts 96°
2026-05-01 10:45 55.79347 -27.03951 37341 ft 508 kts 96°
2026-05-01 10:45 55.78322 -26.91546 37340 ft 508 kts 96°
2026-05-01 10:46 55.77282 -26.79133 37351 ft 508 kts 96°
2026-05-01 10:46 55.76230 -26.66716 37342 ft 509 kts 96°
2026-05-01 10:47 55.75164 -26.54298 37342 ft 509 kts 96°
2026-05-01 10:47 55.74085 -26.41881 37335 ft 509 kts 96°
2026-05-01 10:48 55.72992 -26.29462 37333 ft 510 kts 96°
2026-05-01 10:48 55.71886 -26.17033 37322 ft 510 kts 97°
2026-05-01 10:49 55.70767 -26.04615 37332 ft 510 kts 97°
2026-05-01 10:49 55.69642 -25.92267 37314 ft 510 kts 97°
2026-05-01 10:50 55.68499 -25.79873 37331 ft 509 kts 97°
2026-05-01 10:50 55.67347 -25.67523 37318 ft 507 kts 97°
2026-05-01 10:51 55.66186 -25.55209 37319 ft 506 kts 97°
2026-05-01 10:51 55.65014 -25.42927 37332 ft 505 kts 97°
2026-05-01 10:52 55.63831 -25.30654 37331 ft 506 kts 97°
2026-05-01 10:52 55.62634 -25.18373 37320 ft 507 kts 97°
2026-05-01 10:53 55.61423 -25.06083 37317 ft 508 kts 98°
2026-05-01 10:53 55.60199 -24.93795 37328 ft 507 kts 98°
2026-05-01 10:54 55.58964 -24.81526 37311 ft 506 kts 98°
2026-05-01 10:54 55.57718 -24.69280 37334 ft 506 kts 98°
2026-05-01 10:55 55.56461 -24.57046 37310 ft 506 kts 98°
2026-05-01 10:55 55.55191 -24.44819 37316 ft 506 kts 98°
2026-05-01 10:56 55.53916 -24.32665 37309 ft 507 kts 98°
2026-05-01 10:56 55.52621 -24.20440 37305 ft 507 kts 98°
2026-05-01 10:57 55.51312 -24.08217 37309 ft 506 kts 98°
2026-05-01 10:57 55.49993 -23.96012 37311 ft 507 kts 98°
2026-05-01 10:58 55.48878 -23.85791 37304 ft 507 kts 98°
2026-05-01 10:58 55.47535 -23.73590 37302 ft 507 kts 98°
2026-05-01 10:59 55.46181 -23.61404 37302 ft 507 kts 98°
2026-05-01 10:59 55.44814 -23.49219 37299 ft 507 kts 99°
2026-05-01 11:00 55.43435 -23.37047 37297 ft 507 kts 99°
2026-05-01 11:00 55.42053 -23.24960 37295 ft 507 kts 99°
2026-05-01 11:01 55.40651 -23.12818 37306 ft 506 kts 99°
2026-05-01 11:01 55.39241 -23.00712 37296 ft 504 kts 99°
2026-05-01 11:02 55.37822 -22.88641 37297 ft 503 kts 99°
2026-05-01 11:02 55.36396 -22.76619 37299 ft 502 kts 99°
2026-05-01 11:03 55.34958 -22.64609 37301 ft 502 kts 99°
2026-05-01 11:03 55.33507 -22.52590 37294 ft 503 kts 99°
2026-05-01 11:04 55.32043 -22.40569 37291 ft 504 kts 99°
2026-05-01 11:04 55.30564 -22.28533 37299 ft 504 kts 99°
2026-05-01 11:05 55.29070 -22.16484 37619 ft 506 kts 99°
2026-05-01 11:05 55.28320 -22.10478 38082 ft 502 kts 100°
2026-05-01 11:05 55.27572 -22.04515 38576 ft 499 kts 100°
2026-05-01 11:05 55.26826 -21.98594 39007 ft 497 kts 100°
2026-05-01 11:06 55.26079 -21.92680 39214 ft 497 kts 100°
2026-05-01 11:06 55.24570 -21.80802 39283 ft 499 kts 101°
2026-05-01 11:07 55.22290 -21.63063 39278 ft 496 kts 101°
2026-05-01 11:07 55.20763 -21.51310 39282 ft 494 kts 101°
2026-05-01 11:08 55.19231 -21.39607 39288 ft 492 kts 101°
2026-05-01 11:09 55.16931 -21.22203 39286 ft 491 kts 101°
2026-05-01 11:09 55.15378 -21.10579 39279 ft 490 kts 101°
2026-05-01 11:10 55.13033 -20.93186 39281 ft 490 kts 101°
2026-05-01 11:10 55.11455 -20.81596 39279 ft 490 kts 101°
2026-05-01 11:11 55.09865 -20.70005 39285 ft 491 kts 102°
2026-05-01 11:11 55.08262 -20.58416 39279 ft 491 kts 102°
2026-05-01 11:12 55.06649 -20.46837 39276 ft 490 kts 102°
2026-05-01 11:12 55.05028 -20.35295 39273 ft 489 kts 102°
2026-05-01 11:13 55.03400 -20.23787 39267 ft 488 kts 102°
2026-05-01 11:13 55.01766 -20.12312 39269 ft 487 kts 102°
2026-05-01 11:14 55.00125 -20.00866 39277 ft 487 kts 102°
2026-05-01 11:14 54.98292 -19.89514 39265 ft 487 kts 105°
2026-05-01 11:15 54.96243 -19.78275 39263 ft 487 kts 106°
2026-05-01 11:15 54.94202 -19.67115 39265 ft 487 kts 105°
2026-05-01 11:16 54.92173 -19.55861 39261 ft 488 kts 105°
2026-05-01 11:16 54.90148 -19.44592 39263 ft 489 kts 105°
2026-05-01 11:17 54.88112 -19.33310 39266 ft 490 kts 106°
2026-05-01 11:17 54.86059 -19.22021 39259 ft 491 kts 106°
2026-05-01 11:18 54.83991 -19.10724 39256 ft 491 kts 106°
2026-05-01 11:18 54.81910 -18.99431 39256 ft 492 kts 106°
2026-05-01 11:19 54.79819 -18.88148 39253 ft 491 kts 106°
2026-05-01 11:19 54.77722 -18.76903 39245 ft 490 kts 106°
2026-05-01 11:20 54.75621 -18.65700 39252 ft 488 kts 106°
2026-05-01 11:20 54.73518 -18.54550 39243 ft 486 kts 106°
2026-05-01 11:21 54.71410 -18.43448 39233 ft 485 kts 106°
2026-05-01 11:21 54.69302 -18.32401 39237 ft 483 kts 106°
2026-05-01 11:22 54.67185 -18.21375 39235 ft 483 kts 107°
2026-05-01 11:22 54.65061 -18.10375 39234 ft 483 kts 107°
2026-05-01 11:23 54.62928 -17.99392 39240 ft 483 kts 107°
2026-05-01 11:23 54.60783 -17.88411 39224 ft 483 kts 107°
2026-05-01 11:24 54.58644 -17.77521 39230 ft 483 kts 107°
2026-05-01 11:25 54.55395 -17.61099 39223 ft 483 kts 107°
2026-05-01 11:25 54.52123 -17.44699 39221 ft 483 kts 107°
2026-05-01 11:26 54.48822 -17.28288 39219 ft 484 kts 108°
2026-05-01 11:27 54.46605 -17.17343 39214 ft 485 kts 108°
2026-05-01 11:27 54.44374 -17.06390 39215 ft 486 kts 108°
2026-05-01 11:28 54.42132 -16.95442 39214 ft 486 kts 108°
2026-05-01 11:28 54.39876 -16.84487 39205 ft 487 kts 108°
2026-05-01 11:29 54.36471 -16.68067 39208 ft 487 kts 108°
2026-05-01 11:30 54.33043 -16.51671 39198 ft 487 kts 108°
2026-05-01 11:30 54.30745 -16.40755 39199 ft 487 kts 108°
2026-05-01 11:31 54.28453 -16.29924 39197 ft 487 kts 109°
2026-05-01 11:31 54.26138 -16.19043 39195 ft 487 kts 108°
2026-05-01 11:32 54.23815 -16.08181 39195 ft 486 kts 109°
2026-05-01 11:32 54.21486 -15.97350 39186 ft 486 kts 109°
2026-05-01 11:33 54.19150 -15.86544 39181 ft 485 kts 109°
2026-05-01 11:33 54.16807 -15.75764 39179 ft 484 kts 109°
2026-05-01 11:34 54.14461 -15.65021 39181 ft 483 kts 109°
2026-05-01 11:34 54.12106 -15.54299 39169 ft 482 kts 109°
2026-05-01 11:35 54.09747 -15.43606 39179 ft 481 kts 110°
2026-05-01 11:35 54.07383 -15.32947 39161 ft 480 kts 110°
2026-05-01 11:36 54.05011 -15.22306 39140 ft 481 kts 110°
2026-05-01 11:36 54.02632 -15.11680 39143 ft 479 kts 110°
2026-05-01 11:37 54.00667 -15.00915 39145 ft 476 kts 100°
2026-05-01 11:37 53.99933 -14.89779 39138 ft 474 kts 90°
2026-05-01 11:38 53.99987 -14.78596 39134 ft 472 kts 89°
2026-05-01 11:38 54.00065 -14.67440 39140 ft 471 kts 89°
2026-05-01 11:39 54.00095 -14.56375 39134 ft 471 kts 90°
2026-05-01 11:39 54.00097 -14.45250 39113 ft 471 kts 90°
2026-05-01 11:40 54.00087 -14.34128 39110 ft 471 kts 90°
2026-05-01 11:40 54.00070 -14.22987 39108 ft 472 kts 90°
2026-05-01 11:41 54.00044 -14.11821 39106 ft 473 kts 90°
2026-05-01 11:41 53.99631 -14.00672 39113 ft 473 kts 99°
2026-05-01 11:42 53.98033 -13.89818 39097 ft 474 kts 109°
2026-05-01 11:42 53.95853 -13.79233 39093 ft 475 kts 109°
2026-05-01 11:43 53.93643 -13.68640 39085 ft 476 kts 110°
2026-05-01 11:43 53.91449 -13.58036 39080 ft 477 kts 109°
2026-05-01 11:44 53.88159 -13.42093 39073 ft 478 kts 109°
2026-05-01 11:44 53.85957 -13.31477 39067 ft 478 kts 110°
2026-05-01 11:45 53.83745 -13.20872 39060 ft 477 kts 110°
2026-05-01 11:45 53.81524 -13.10287 39071 ft 477 kts 110°
2026-05-01 11:46 53.79675 -13.01515 39063 ft 476 kts 110°
2026-05-01 11:46 53.77443 -12.90983 39055 ft 476 kts 110°
2026-05-01 11:47 53.75205 -12.80472 39045 ft 475 kts 111°
2026-05-01 11:47 53.72957 -12.69970 39064 ft 475 kts 111°
2026-05-01 11:48 53.70701 -12.59480 39049 ft 476 kts 111°
2026-05-01 11:48 53.68433 -12.48993 39056 ft 476 kts 111°
2026-05-01 11:49 53.66153 -12.38505 39059 ft 476 kts 111°
2026-05-01 11:49 53.63863 -12.28025 39053 ft 477 kts 111°
2026-05-01 11:50 53.61577 -12.17610 39057 ft 477 kts 111°
2026-05-01 11:50 53.59264 -12.07126 39063 ft 477 kts 112°
2026-05-01 11:51 53.56943 -11.96666 39049 ft 477 kts 112°
2026-05-01 11:51 53.54615 -11.86220 39067 ft 477 kts 112°
2026-05-01 11:52 53.52278 -11.75789 39061 ft 477 kts 112°
2026-05-01 11:52 53.49933 -11.65374 39066 ft 477 kts 112°
2026-05-01 11:53 53.47579 -11.54971 39066 ft 477 kts 112°
2026-05-01 11:53 53.45216 -11.44578 39072 ft 476 kts 112°
2026-05-01 11:54 53.42845 -11.34202 39067 ft 476 kts 113°
2026-05-01 11:54 53.40465 -11.23836 39074 ft 476 kts 113°
2026-05-01 11:55 53.38075 -11.13482 39080 ft 477 kts 113°
2026-05-01 11:55 53.35677 -11.03138 39083 ft 477 kts 113°
2026-05-01 11:56 53.33267 -10.92795 39085 ft 477 kts 113°
2026-05-01 11:56 53.30847 -10.82461 39086 ft 477 kts 113°
2026-05-01 11:57 53.28418 -10.72137 39087 ft 477 kts 113°
2026-05-01 11:57 53.25981 -10.61825 39097 ft 477 kts 114°
2026-05-01 11:58 53.23534 -10.51523 39096 ft 477 kts 114°
2026-05-01 11:59 53.19851 -10.36112 39095 ft 476 kts 114°
2026-05-01 11:59 53.17405 -10.25936 39086 ft 476 kts 114°
2026-05-01 12:00 53.13700 -10.10609 39094 ft 475 kts 114°
2026-05-01 12:01 53.09984 -9.95347 39103 ft 474 kts 114°
2026-05-01 12:01 53.07496 -9.85187 39103 ft 474 kts 114°
2026-05-01 12:02 53.05002 -9.75050 39102 ft 474 kts 114°
2026-05-01 12:02 53.02497 -9.64916 39090 ft 474 kts 115°
2026-05-01 12:03 52.99990 -9.54819 39095 ft 473 kts 115°
2026-05-01 12:03 52.97474 -9.44732 39095 ft 473 kts 115°
2026-05-01 12:04 52.94949 -9.34655 39096 ft 473 kts 115°
2026-05-01 12:04 52.92418 -9.24600 39092 ft 473 kts 115°
2026-05-01 12:05 52.89877 -9.14549 39096 ft 473 kts 115°
2026-05-01 12:05 52.86052 -8.99507 39085 ft 473 kts 116°
2026-05-01 12:06 52.83491 -8.89491 39097 ft 472 kts 116°
2026-05-01 12:06 52.80922 -8.79491 39094 ft 472 kts 116°
2026-05-01 12:07 52.78362 -8.69569 39092 ft 472 kts 116°
2026-05-01 12:07 52.75779 -8.59601 39105 ft 472 kts 116°
2026-05-01 12:08 52.73190 -8.49648 39096 ft 472 kts 116°
2026-05-01 12:08 52.70595 -8.39723 39098 ft 471 kts 116°
2026-05-01 12:09 52.67980 -8.29766 39102 ft 470 kts 117°
2026-05-01 12:09 52.65378 -8.19902 39116 ft 469 kts 117°
2026-05-01 12:10 52.61486 -8.05217 39116 ft 469 kts 117°
2026-05-01 12:11 52.57560 -7.90509 39121 ft 468 kts 117°
2026-05-01 12:11 52.54938 -7.80736 39121 ft 467 kts 117°
2026-05-01 12:12 52.52312 -7.70989 39126 ft 466 kts 117°
2026-05-01 12:12 52.49679 -7.61258 39127 ft 466 kts 117°
2026-05-01 12:13 52.47038 -7.51538 39135 ft 466 kts 117°
2026-05-01 12:13 52.44391 -7.41836 39135 ft 466 kts 118°
2026-05-01 12:14 52.41738 -7.32155 39145 ft 466 kts 118°
2026-05-01 12:14 52.39080 -7.22494 39153 ft 465 kts 118°
2026-05-01 12:15 52.36415 -7.12847 39157 ft 465 kts 118°
2026-05-01 12:15 52.33742 -7.03216 39154 ft 465 kts 118°
2026-05-01 12:16 52.31061 -6.93592 39136 ft 465 kts 118°
2026-05-01 12:16 52.28379 -6.84002 39158 ft 464 kts 119°
2026-05-01 12:17 52.25710 -6.74499 39144 ft 463 kts 119°
2026-05-01 12:17 52.23017 -6.64954 39161 ft 463 kts 119°
2026-05-01 12:18 52.20322 -6.55434 39156 ft 462 kts 119°
2026-05-01 12:18 52.17619 -6.45928 39156 ft 462 kts 119°
2026-05-01 12:19 52.14912 -6.36444 39149 ft 461 kts 119°
2026-05-01 12:19 52.12202 -6.26986 39164 ft 460 kts 119°
2026-05-01 12:20 52.09491 -6.17561 39167 ft 460 kts 119°
2026-05-01 12:20 52.06776 -6.08159 39178 ft 459 kts 119°
2026-05-01 12:21 52.04537 -5.98382 39177 ft 465 kts 110°
2026-05-01 12:21 52.02846 -5.88238 39156 ft 465 kts 110°
2026-05-01 12:22 52.01142 -5.78114 39174 ft 465 kts 110°
2026-05-01 12:22 51.99404 -5.68018 39180 ft 464 kts 110°
2026-05-01 12:23 51.97649 -5.57933 39182 ft 464 kts 110°
2026-05-01 12:23 51.95886 -5.47853 39186 ft 465 kts 110°
2026-05-01 12:24 51.94116 -5.37786 39185 ft 465 kts 110°
2026-05-01 12:24 51.92337 -5.27712 39177 ft 465 kts 110°
2026-05-01 12:25 51.90194 -5.12351 39192 ft 468 kts 105°
2026-05-01 12:26 51.89010 -5.01974 39191 ft 469 kts 105°
2026-05-01 12:26 51.87186 -4.86415 39162 ft 469 kts 105°
2026-05-01 12:27 51.85319 -4.70885 39181 ft 469 kts 105°
2026-05-01 12:28 51.83427 -4.55346 39180 ft 472 kts 105°
2026-05-01 12:29 51.81516 -4.39816 39177 ft 471 kts 105°
2026-05-01 12:29 51.79587 -4.24299 39186 ft 468 kts 105°
2026-05-01 12:30 51.77647 -4.08887 39191 ft 466 kts 105°
2026-05-01 12:31 51.76346 -3.98645 39196 ft 465 kts 105°
2026-05-01 12:31 51.75039 -3.88420 39200 ft 465 kts 106°
2026-05-01 12:32 51.73737 -3.78169 39186 ft 467 kts 105°
2026-05-01 12:32 51.71793 -3.62868 39185 ft 468 kts 105°
2026-05-01 12:33 51.70681 -3.52513 39185 ft 472 kts 99°
2026-05-01 12:33 51.70178 -3.43748 39177 ft 472 kts 98°
2026-05-01 12:34 51.69601 -3.33190 39164 ft 473 kts 98°
2026-05-01 12:34 51.68986 -3.22617 39163 ft 475 kts 99°
2026-05-01 12:35 51.68342 -3.12014 39164 ft 476 kts 99°
2026-05-01 12:35 51.67683 -3.01389 39168 ft 477 kts 99°
2026-05-01 12:36 51.67014 -2.90739 39153 ft 478 kts 99°
2026-05-01 12:36 51.66336 -2.80086 39168 ft 477 kts 98°
2026-05-01 12:37 51.65649 -2.69447 39180 ft 477 kts 99°
2026-05-01 12:37 51.64958 -2.58894 39166 ft 477 kts 99°
2026-05-01 12:38 51.64254 -2.48266 39166 ft 476 kts 99°
2026-05-01 12:38 51.63542 -2.37668 39155 ft 476 kts 98°
2026-05-01 12:39 51.62830 -2.27091 39156 ft 475 kts 98°
2026-05-01 12:39 51.62110 -2.16506 39164 ft 475 kts 99°
2026-05-01 12:40 51.61380 -2.05933 39155 ft 475 kts 99°
2026-05-01 12:40 51.60641 -1.95368 39156 ft 475 kts 99°
2026-05-01 12:41 51.59892 -1.84795 39149 ft 475 kts 99°
2026-05-01 12:41 51.59136 -1.74243 39158 ft 476 kts 99°
2026-05-01 12:42 51.58115 -1.63756 39154 ft 473 kts 106°
2026-05-01 12:42 51.56079 -1.53805 39150 ft 472 kts 112°
2026-05-01 12:43 51.53876 -1.43801 39132 ft 472 kts 111°
2026-05-01 12:43 51.51738 -1.33830 39132 ft 472 kts 111°
2026-05-01 12:44 51.49620 -1.23920 39136 ft 473 kts 110°
2026-05-01 12:45 51.46897 -1.03223 39131 ft 475 kts 103°
2026-05-01 12:45 51.45601 -0.92769 39136 ft 474 kts 104°
2026-05-01 12:46 51.44292 -0.82473 39149 ft 474 kts 104°
2026-05-01 12:46 51.42974 -0.72126 39151 ft 474 kts 104°
2026-05-01 12:47 51.41642 -0.61703 39157 ft 474 kts 104°
2026-05-01 12:47 51.40322 -0.51437 39155 ft 474 kts 104°
2026-05-01 12:48 51.38982 -0.41106 39157 ft 474 kts 104°
2026-05-01 12:48 51.37632 -0.30764 39154 ft 474 kts 104°
2026-05-01 12:49 51.36289 -0.20538 39156 ft 474 kts 104°
2026-05-01 12:49 51.34924 -0.10223 39154 ft 474 kts 104°
2026-05-01 12:50 51.33627 -0.00449 39155 ft 473 kts 104°
2026-05-01 12:50 51.33024 0.04692 38998 ft 469 kts 100°
2026-05-01 12:50 51.32712 0.09869 38396 ft 466 kts 96°
2026-05-01 12:51 51.32494 0.15019 37812 ft 462 kts 96°
2026-05-01 12:51 51.32288 0.20129 37259 ft 458 kts 96°
2026-05-01 12:51 51.31883 0.29452 36334 ft 449 kts 97°
2026-05-01 12:52 51.31651 0.34410 35874 ft 445 kts 97°
2026-05-01 12:52 51.31175 0.44169 34964 ft 436 kts 98°
2026-05-01 12:52 51.30937 0.48974 34507 ft 432 kts 98°
2026-05-01 12:53 51.30465 0.58452 33630 ft 423 kts 98°
2026-05-01 12:53 51.30249 0.63132 33140 ft 421 kts 97°
2026-05-01 12:53 51.30080 0.67728 32639 ft 418 kts 97°
2026-05-01 12:54 51.29924 0.72349 32150 ft 415 kts 97°
2026-05-01 12:54 51.29606 0.81490 31229 ft 409 kts 97°
2026-05-01 12:54 51.29441 0.86011 30777 ft 406 kts 97°
2026-05-01 12:55 51.29102 0.94957 30211 ft 404 kts 97°
2026-05-01 12:55 51.28923 0.99521 30219 ft 421 kts 97°
2026-05-01 12:55 51.28733 1.04288 30217 ft 441 kts 97°
2026-05-01 12:56 51.28534 1.09280 30237 ft 459 kts 97°
2026-05-01 12:56 51.28324 1.14453 30215 ft 472 kts 97°
2026-05-01 12:56 51.28113 1.19687 29610 ft 473 kts 97°
2026-05-01 12:56 51.27901 1.24931 28593 ft 473 kts 97°
2026-05-01 12:57 51.27687 1.30150 27821 ft 467 kts 97°
2026-05-01 12:57 51.27270 1.40191 27189 ft 439 kts 97°
2026-05-01 12:57 51.27066 1.44983 26901 ft 426 kts 98°
2026-05-01 12:58 51.26865 1.49640 26638 ft 415 kts 98°
2026-05-01 12:58 51.26667 1.54202 26377 ft 411 kts 98°
2026-05-01 12:58 51.26468 1.58758 26141 ft 410 kts 98°
2026-05-01 12:59 51.26072 1.67744 25644 ft 407 kts 98°
2026-05-01 12:59 51.25872 1.72241 25410 ft 405 kts 98°
2026-05-01 12:59 51.25467 1.81230 24924 ft 402 kts 98°
2026-05-01 13:00 51.25064 1.90041 24458 ft 399 kts 98°
2026-05-01 13:00 51.24861 1.94445 24210 ft 397 kts 98°
2026-05-01 13:01 51.24453 2.03207 23741 ft 394 kts 98°
2026-05-01 13:01 51.24255 2.07555 23466 ft 393 kts 98°
2026-05-01 13:01 51.23862 2.16177 23231 ft 388 kts 98°
2026-05-01 13:02 51.23663 2.20481 23211 ft 390 kts 98°
2026-05-01 13:07 51.04628 3.05428 15476 ft 379 kts 104°
2026-05-01 13:07 51.04124 3.09530 14923 ft 376 kts 104°
2026-05-01 13:07 51.03622 3.13592 14372 ft 373 kts 104°
2026-05-01 13:08 51.03124 3.17620 13789 ft 370 kts 104°
2026-05-01 13:08 51.02627 3.21613 13205 ft 367 kts 104°
2026-05-01 13:08 51.02133 3.25574 12640 ft 363 kts 104°
2026-05-01 13:08 51.01650 3.29438 12096 ft 360 kts 104°
2026-05-01 13:09 51.01164 3.33307 11551 ft 356 kts 104°
2026-05-01 13:09 51.00685 3.37133 11154 ft 348 kts 104°
2026-05-01 13:09 51.00222 3.40811 11077 ft 332 kts 104°
2026-05-01 13:09 50.99782 3.44321 10966 ft 317 kts 104°
2026-05-01 13:10 50.99359 3.47676 10869 ft 302 kts 104°
2026-05-01 13:10 50.98954 3.50875 10781 ft 289 kts 104°
2026-05-01 13:10 50.98566 3.53922 10688 ft 276 kts 104°
2026-05-01 13:10 50.98194 3.56854 10517 ft 267 kts 104°
2026-05-01 13:11 50.97828 3.59712 10261 ft 262 kts 104°
2026-05-01 13:11 50.97466 3.62528 9891 ft 260 kts 104°
2026-05-01 13:11 50.97104 3.65342 9474 ft 260 kts 104°
2026-05-01 13:11 50.96740 3.68152 9086 ft 260 kts 104°
2026-05-01 13:12 50.96377 3.70961 8675 ft 260 kts 104°
2026-05-01 13:12 50.96014 3.73764 8274 ft 259 kts 104°
2026-05-01 13:12 50.95654 3.76556 7899 ft 258 kts 104°
2026-05-01 13:12 50.95293 3.79342 7535 ft 256 kts 104°
2026-05-01 13:13 50.94940 3.82067 7183 ft 255 kts 104°
2026-05-01 13:13 50.94584 3.84815 6815 ft 254 kts 104°
2026-05-01 13:13 50.94227 3.87557 6428 ft 254 kts 104°
2026-05-01 13:13 50.93871 3.90287 6073 ft 252 kts 104°
2026-05-01 13:14 50.93525 3.92946 5994 ft 238 kts 104°
2026-05-01 13:14 50.93200 3.95427 5968 ft 222 kts 104°
2026-05-01 13:14 50.92886 3.97804 6029 ft 221 kts 105°
2026-05-01 13:14 50.92326 4.00000 5994 ft 214 kts 129°
2026-05-01 13:15 50.91344 4.01801 5855 ft 220 kts 135°
2026-05-01 13:15 50.90300 4.03557 5622 ft 217 kts 135°
2026-05-01 13:15 50.89280 4.05288 5349 ft 211 kts 135°
2026-05-01 13:15 50.88290 4.06965 5096 ft 206 kts 138°
2026-05-01 13:16 50.87085 4.08160 4720 ft 205 kts 158°
2026-05-01 13:16 50.85778 4.09050 4460 ft 204 kts 157°
2026-05-01 13:16 50.84501 4.09958 4305 ft 196 kts 156°
2026-05-01 13:17 50.81248 4.13712 4006 ft 210 kts 106°
2026-05-01 13:17 50.81337 4.16049 3941 ft 223 kts 75°
2026-05-01 13:18 50.82606 4.20614 3468 ft 223 kts 68°
2026-05-01 13:18 50.83265 4.22843 3207 ft 226 kts 68°
2026-05-01 13:18 50.83913 4.25050 3066 ft 214 kts 68°
2026-05-01 13:18 50.84521 4.27113 2995 ft 200 kts 68°
2026-05-01 13:19 50.85091 4.29059 2761 ft 190 kts 69°
2026-05-01 13:19 50.85459 4.30334 2487 ft 187 kts 69°
2026-05-01 13:19 50.86532 4.33951 1647 ft 175 kts 66°
2026-05-01 13:20 50.87057 4.35648 1363 ft 174 kts 67°
2026-05-01 13:20 50.87575 4.37388 1050 ft 175 kts 70°
2026-05-01 13:20 50.88035 4.39089 912 ft 167 kts 70°
2026-05-01 13:21 50.88993 4.42471 645 ft 159 kts 68°
2026-05-01 13:21 50.89443 4.43957 422 ft 143 kts 71°
2026-05-01 13:21 50.89841 4.45405 229 ft 145 kts 70°
2026-05-01 13:21 50.90263 4.46836 134 ft 135 kts 70°
2026-05-01 13:22 50.90584 4.47979 123 ft 87 kts 65°
2026-05-01 13:22 50.90762 4.48586 122 ft 37 kts 65°
2026-05-01 13:22 50.90886 4.49018 121 ft 43 kts 65°
2026-05-01 13:22 50.90982 4.49447 123 ft 40 kts 86°
2026-05-01 13:23 50.90941 4.49679 123 ft 15 kts 146°
2026-05-01 13:23 50.90876 4.49601 125 ft 14 kts 246°
2026-05-01 13:23 50.90837 4.49461 124 ft 14 kts 246°
2026-05-01 13:23 50.90793 4.49314 122 ft 15 kts 244°
2026-05-01 13:24 50.90745 4.49154 124 ft 16 kts 245°
2026-05-01 13:24 50.90698 4.48988 123 ft 17 kts 246°
2026-05-01 13:24 50.90652 4.48825 122 ft 16 kts 246°
2026-05-01 13:25 50.90536 4.48645 123 ft 11 kts 114°
2026-05-01 13:25 50.90554 4.48756 121 ft 11 kts 65°
2026-05-01 13:25 50.90587 4.48872 121 ft 12 kts 66°
2026-05-01 13:25 50.90622 4.48994 121 ft 12 kts 65°
2026-05-01 13:26 50.90635 4.49121 122 ft 12 kts 117°
2026-05-01 13:26 50.90564 4.49196 124 ft 12 kts 154°
2026-05-01 13:26 50.90482 4.49253 123 ft 13 kts 156°
2026-05-01 13:26 50.90397 4.49313 123 ft 13 kts 155°
2026-05-01 13:27 50.90319 4.49290 126 ft 13 kts 233°
2026-05-01 13:27 50.90280 4.49161 123 ft 13 kts 245°
2026-05-01 13:27 50.90200 4.48885 126 ft 14 kts 245°
2026-05-01 13:28 50.90124 4.48812 132 ft 5 kts 155°
2026-05-01 13:28 50.90104 4.48827 130 ft 0 kts 155°